Total_Precipitation_Accumulation
1.37 1.43 1.49 1.49 1.51 1.49 1.45 1.38 1.44 1.50 1.53 1.53 1.57 1.66 1.71 1.75 1.87 2.01 2.00 2.12 2.11 2.09 2.09 2.22 2.35 2.55 2.49 2.34 2.48 2.62 2.78 2.99 2.66 2.39 2.26 2.04 2.06 1.95 1.86 1.79 1.64 1.62 1.47
1.34 1.46 1.65 1.62 1.61 1.58 1.44 1.37 1.43 1.44 1.46 1.49 1.58 1.65 1.63 1.72 1.90 2.00 1.98 2.13 2.15 2.08 2.12 2.27 2.25 2.33 2.40 2.31 2.31 2.32 2.53 2.77 2.68 2.49 2.52 2.43 2.28 2.19 2.16 2.05 1.71 1.56 1.53
1.43 1.49 1.63 1.63 1.60 1.50 1.40 1.37 1.38 1.39 1.44 1.48 1.48 1.51 1.56 1.67 1.82 1.88 1.99 2.08 2.16 2.18 2.15 2.07 1.99 2.13 2.26 2.44 2.46 2.38 2.41 2.55 2.73 2.61 2.56 2.65 2.42 2.21 2.32 2.18 1.98 1.96 1.55
1.23 1.29 1.38 1.33 1.31 1.33 1.34 1.32 1.31 1.37 1.42 1.49 1.51 1.59 1.63 1.69 1.75 1.84 1.91 1.85 1.85 1.84 1.83 1.82 1.81 1.88 2.05 2.46 2.49 2.53 2.53 2.54 2.71 2.73 2.70 2.73 2.76 2.53 2.54 2.32 2.18 2.05 1.79
1.16 1.21 1.30 1.35 1.34 1.35 1.30 1.24 1.32 1.39 1.36 1.49 1.58 1.58 1.62 1.65 1.57 1.65 1.63 1.56 1.63 1.55 1.48 1.47 1.47 1.57 1.62 1.79 1.85 2.16 2.41 2.49 2.56 2.68 2.69 2.74 2.76 2.87 2.61 2.44 2.37 2.28 2.12
0.94 1.03 1.24 1.38 1.40 1.37 1.27 1.27 1.34 1.41 1.48 1.56 1.60 1.59 1.58 1.44 1.58 1.62 1.56 1.48 1.46 1.42 1.36 1.32 1.27 1.32 1.41 1.42 1.41 1.58 1.85 2.12 2.41 2.63 2.69 2.73 2.81 2.89 2.88 2.72 2.59 2.41 2.29
0.90 0.98 1.06 1.18 1.25 1.20 1.13 1.15 1.22 1.32 1.46 1.53 1.61 1.71 1.71 1.72 1.72 1.62 1.53 1.39 1.36 1.34 1.30 1.32 1.14 1.09 1.21 1.15 1.28 1.32 1.39 1.57 1.74 2.13 2.39 2.44 2.58 2.68 2.88 2.79 2.72 2.64 2.51
1.05 1.10 1.08 1.13 1.23 1.26 1.21 1.22 1.33 1.42 1.46 1.53 1.58 1.66 1.72 1.67 1.69 1.55 1.43 1.24 1.24 1.30 1.29 1.30 1.27 1.24 1.25 1.28 1.34 1.28 1.21 1.26 1.35 1.42 1.51 1.70 1.95 2.29 2.59 2.73 2.84 2.86 2.84
1.12 1.19 1.22 1.26 1.35 1.39 1.39 1.46 1.57 1.65 1.57 1.56 1.64 1.71 1.76 1.78 1.75 1.51 1.38 1.23 1.26 1.32 1.26 1.27 1.33 1.26 1.29 1.22 1.23 1.25 1.21 1.16 1.19 1.26 1.22 1.34 1.49 1.71 2.01 2.22 2.41 2.63 2.87
1.25 1.25 1.33 1.45 1.53 1.59 1.75 1.97 2.05 2.05 1.94 1.85 1.73 1.72 1.71 1.76 1.76 1.53 1.43 1.30 1.38 1.46 1.49 1.47 1.44 1.33 1.27 1.20 1.13 1.18 1.17 1.13 1.20 1.19 1.14 1.12 1.14 1.27 1.50 1.64 1.82 2.09 2.35
1.59 1.59 1.59 1.71 1.83 1.91 2.13 2.32 2.36 2.33 2.41 2.31 2.11 1.99 1.95 1.92 1.87 1.70 1.69 1.59 1.69 1.79 1.71 1.60 1.49 1.39 1.18 1.10 1.06 1.05 1.08 1.12 1.22 1.29 1.27 1.22 1.20 1.18 1.24 1.38 1.58 1.70 1.84
1.68 1.74 1.81 1.98 1.94 2.01 2.27 2.34 2.44 2.59 2.61 2.48 2.45 2.34 2.23 2.20 2.00 1.84 1.75 1.67 1.62 1.66 1.67 1.55 1.44 1.32 1.10 1.00 0.95 0.93 0.95 0.92 0.94 1.05 1.11 1.15 1.16 1.10 1.12 1.26 1.47 1.65 1.65
1.85 1.91 2.04 2.20 2.33 2.39 2.55 2.66 2.64 2.64 2.64 2.60 2.61 2.52 2.44 2.38 2.19 1.87 1.69 1.61 1.52 1.44 1.46 1.45 1.37 1.25 1.11 0.97 0.97 0.94 0.86 0.82 0.90 0.96 0.99 1.07 1.11 1.09 1.11 1.23 1.39 1.58 1.61
1.97 2.01 2.15 2.29 2.36 2.44 2.60 2.66 2.69 2.67 2.68 2.73 2.72 2.59 2.48 2.38 2.22 1.98 1.74 1.59 1.47 1.35 1.33 1.39 1.34 1.21 1.07 1.02 1.02 0.93 0.85 0.92 1.02 1.00 1.01 1.08 1.20 1.24 1.25 1.25 1.37 1.48 1.58
2.06 2.12 2.25 2.40 2.53 2.61 2.52 2.56 2.62 2.65 2.58 2.49 2.48 2.46 2.45 2.36 2.24 2.06 1.85 1.70 1.60 1.53 1.44 1.40 1.39 1.29 1.19 1.15 1.18 1.17 1.17 1.14 1.09 1.09 1.14 1.20 1.29 1.35 1.36 1.38 1.44 1.48 1.45
2.15 2.18 2.28 2.36 2.50 2.51 2.49 2.39 2.31 2.22 2.20 2.09 2.11 2.14 2.13 2.11 2.02 1.81 1.68 1.60 1.58 1.62 1.52 1.49 1.56 1.55 1.49 1.42 1.38 1.37 1.35 1.30 1.27 1.30 1.34 1.34 1.33 1.33 1.31 1.40 1.50 1.52 1.48
2.21 2.22 2.25 2.23 2.32 2.42 2.44 2.37 2.25 2.13 2.01 1.90 1.85 1.78 1.70 1.72 1.69 1.65 1.66 1.66 1.62 1.55 1.44 1.51 1.63 1.69 1.71 1.68 1.60 1.49 1.45 1.38 1.33 1.33 1.33 1.34 1.34 1.38 1.41 1.45 1.52 1.57 1.55
2.14 2.18 2.12 2.10 2.18 2.31 2.34 2.35 2.34 2.24 2.15 2.03 1.92 1.81 1.63 1.52 1.51 1.56 1.64 1.61 1.53 1.46 1.46 1.61 1.71 1.74 1.79 1.79 1.67 1.60 1.53 1.45 1.41 1.42 1.45 1.50 1.50 1.51 1.50 1.47 1.48 1.51 1.55
2.08 2.07 2.08 2.11 2.14 2.20 2.26 2.31 2.32 2.23 2.17 2.05 1.84 1.69 1.60 1.49 1.45 1.48 1.45 1.39 1.47 1.55 1.60 1.73 1.78 1.76 1.69 1.63 1.59 1.57 1.49 1.45 1.43 1.44 1.45 1.46 1.46 1.48 1.50 1.52 1.53 1.60 1.57
1.92 2.05 2.10 2.02 2.01 2.07 2.18 2.27 2.27 2.24 2.23 2.17 2.02 1.74 1.55 1.41 1.34 1.39 1.34 1.33 1.39 1.43 1.46 1.55 1.65 1.70 1.68 1.62 1.56 1.48 1.43 1.40 1.38 1.38 1.38 1.38 1.43 1.44 1.40 1.44 1.48 1.45 1.44
1.85 1.86 1.96 1.93 1.90 1.92 1.98 2.02 2.07 2.03 1.95 1.91 1.87 1.74 1.61 1.45 1.45 1.42 1.40 1.39 1.36 1.33 1.38 1.50 1.55 1.53 1.47 1.44 1.44 1.41 1.38 1.39 1.37 1.35 1.39 1.40 1.41 1.40 1.32 1.30 1.31 1.31 1.31
1.96 1.92 1.81 1.79 1.80 1.85 1.86 1.85 1.85 1.80 1.73 1.68 1.64 1.55 1.51 1.40 1.42 1.42 1.39 1.37 1.31 1.25 1.24 1.26 1.31 1.33 1.30 1.27 1.30 1.34 1.33 1.31 1.32 1.30 1.29 1.30 1.32 1.29 1.26 1.26 1.28 1.32 1.39
1.92 1.86 1.74 1.62 1.56 1.64 1.64 1.62 1.62 1.57 1.54 1.52 1.47 1.37 1.31 1.32 1.30 1.25 1.21 1.17 1.14 1.12 1.12 1.16 1.19 1.19 1.15 1.12 1.13 1.17 1.18 1.15 1.17 1.20 1.24 1.26 1.25 1.20 1.21 1.24 1.24 1.30 1.36
1.78 1.74 1.64 1.52 1.38 1.35 1.42 1.51 1.51 1.48 1.48 1.39 1.28 1.20 1.17 1.18 1.13 1.03 0.97 0.95 0.94 0.90 0.91 0.96 0.93 0.90 0.93 0.96 0.98 0.98 0.97 0.95 0.94 0.99 1.01 1.08 1.13 1.10 1.10 1.12 1.09 1.15 1.28
1.52 1.51 1.50 1.46 1.31 1.21 1.28 1.37 1.36 1.31 1.26 1.18 1.07 1.05 1.03 0.99 0.95 0.91 0.87 0.84 0.82 0.81 0.75 0.75 0.78 0.77 0.78 0.79 0.79 0.79 0.77 0.73 0.70 0.73 0.78 0.86 0.95 0.99 1.01 1.04 1.10 1.19 1.29
1.34 1.34 1.33 1.31 1.22 1.12 1.15 1.22 1.22 1.15 1.12 1.03 0.92 0.90 0.92 0.91 0.90 0.89 0.85 0.79 0.77 0.72 0.67 0.67 0.70 0.70 0.68 0.68 0.67 0.62 0.60 0.57 0.58 0.62 0.62 0.70 0.84 0.94 0.97 1.01 1.02 1.08 1.15